Wind_Speed
44 45 47 47 48 49 50 52 54 56 58 59 59 60 61 61 62 63 64 64 64 65 65 65 64 64 65 65 64 64 64 64 63 62 63 64 65 65 64 61 58 56 53
47 49 51 52 53 54 55 56 58 59 60 60 60 60 61 61 62 63 63 63 63 64 64 63 64 63 63 63 62 62 63 63 62 61 60 60 60 59 56 52 49 46 44
50 52 54 55 57 58 59 59 60 60 60 60 60 60 60 61 61 62 62 62 62 62 62 61 61 60 60 60 60 60 60 60 60 59 56 54 51 48 45 42 40 38 36
54 55 57 58 59 60 60 60 60 60 59 59 59 59 59 59 59 59 59 60 59 59 58 58 58 58 58 58 58 58 58 57 56 53 48 43 40 38 36 34 32 32 32
57 58 59 60 60 60 59 59 59 58 58 58 57 57 57 57 57 57 57 56 56 56 56 56 56 56 56 56 56 55 54 50 46 41 36 32 31 30 30 29 28 28 29
58 58 58 58 58 58 58 58 57 57 56 55 54 54 54 54 54 54 54 53 53 53 53 54 54 54 54 53 51 49 45 40 34 30 27 26 26 26 26 27 27 26 27
57 57 56 56 56 56 56 55 54 53 52 52 51 51 51 50 51 51 51 51 51 51 51 50 50 50 47 44 42 38 34 30 25 23 22 23 23 25 25 26 26 27 26
55 55 54 54 53 53 51 50 49 49 48 48 48 48 49 49 49 49 49 49 49 48 47 46 44 41 39 35 31 28 26 23 21 21 22 23 24 25 24 24 24 23 24
53 52 51 50 49 48 47 46 46 45 45 45 46 46 46 46 46 46 46 46 45 44 42 39 35 32 29 25 22 20 19 19 20 21 22 23 23 22 21 21 21 20 20
48 47 46 45 45 44 44 43 43 43 43 44 44 44 44 44 44 43 42 40 39 37 34 30 27 23 20 17 16 15 15 17 19 20 21 21 21 19 19 19 19 19 19
44 43 42 41 41 41 41 42 42 42 43 43 43 42 41 40 39 37 35 32 30 28 25 22 20 16 14 12 12 13 14 15 17 18 19 18 18 18 18 18 18 17 17
39 38 38 39 39 40 40 40 41 41 41 40 39 37 35 34 31 29 26 24 22 20 18 16 13 11 9 10 10 11 13 14 16 16 17 17 17 17 17 17 17 17 16
35 36 36 37 38 38 39 39 39 38 37 35 33 30 28 26 23 21 19 18 16 15 12 10 8 7 8 9 10 11 13 14 15 16 17 17 17 17 18 18 18 18 18
33 35 36 37 38 38 37 36 35 32 30 28 26 24 22 20 18 17 15 13 11 8 6 5 5 6 7 8 9 11 13 14 15 17 18 18 18 18 19 19 19 19 20
34 35 36 36 35 34 32 30 28 26 23 22 20 19 18 16 15 13 11 8 5 3 4 5 6 6 7 9 10 12 13 15 16 17 19 19 19 20 21 21 21 21 21
34 34 34 32 30 28 26 24 21 20 18 17 16 15 14 12 10 8 5 3 4 5 6 7 7 7 8 9 11 12 14 15 17 18 20 20 21 21 22 22 22 22 22
32 31 29 27 24 21 20 18 17 16 15 14 13 11 9 8 6 4 4 6 7 8 8 8 8 9 9 10 11 13 14 15 16 18 20 21 21 22 23 24 24 24 24
28 26 23 21 18 16 15 14 13 12 11 10 9 8 7 6 6 7 8 9 9 9 9 9 9 10 11 11 12 14 15 16 17 18 20 21 22 23 23 24 25 26 26
24 21 19 16 14 13 12 11 10 9 9 8 7 7 7 8 9 10 10 10 10 10 9 10 11 11 12 12 13 14 15 17 18 19 20 21 22 23 23 24 26 27 27
20 18 16 13 11 10 9 9 8 8 7 8 8 9 10 11 11 11 11 10 10 10 10 11 12 12 13 13 14 15 16 17 18 19 20 21 22 23 24 24 26 27 27
18 16 13 11 9 9 8 8 8 9 9 10 11 12 12 12 12 11 11 11 11 11 11 12 13 13 13 14 14 15 16 17 18 19 21 22 23 24 24 24 25 26 26
16 15 13 11 10 10 10 10 11 11 12 13 13 13 13 12 12 11 11 11 12 12 12 13 13 13 14 14 15 16 17 18 19 19 21 22 23 24 25 25 25 25 25
16 16 15 14 13 13 13 13 14 14 14 14 14 14 13 12 12 12 12 12 12 13 13 13 13 14 14 15 16 16 17 18 19 20 21 22 23 24 24 25 25 25 25
17 17 17 17 16 16 16 16 16 16 16 15 15 14 13 13 12 12 13 13 13 13 13 13 14 14 15 15 16 17 17 18 19 19 20 21 22 23 23 24 24 24 24
19 18 18 18 17 17 17 16 16 16 16 16 15 15 14 14 13 13 13 13 13 13 13 13 14 14 14 15 15 16 17 17 18 19 19 20 21 21 21 22 22 22 22
22 21 19 18 18 17 16 16 16 16 15 15 15 15 15 15 14 14 14 14 13 13 13 14 14 14 14 14 15 15 15 16 16 17 17 18 19 19 19 20 20 20 20
Wind_Direction
294 296 297 297 299 301 301 302 302 302 302 300 299 298 297 295 294 294 294 293 293 293 294 294 294 295 295 296 296 296 295 295 294 293 292 292 292 291 291 291 291 290 289
292 294 296 296 298 299 300 300 301 301 301 300 298 297 296 295 294 293 293 293 293 293 293 294 295 296 296 296 296 296 296 296 295 295 294 294 293 293 292 292 292 292 291
293 294 295 297 298 298 299 300 300 300 299 298 297 296 295 294 293 293 293 293 293 294 295 295 296 297 297 297 297 297 297 297 297 297 296 295 294 293 293 293 294 294 293
293 295 297 298 299 299 299 299 299 299 298 297 296 295 294 294 293 293 294 294 294 295 296 297 297 297 297 297 297 297 297 298 298 299 298 297 295 295 296 297 297 297 296
295 297 298 299 299 299 299 299 298 297 297 296 296 295 294 293 293 294 295 295 296 297 297 297 297 297 298 298 298 298 299 300 300 300 299 299 298 299 300 301 301 300 300
298 298 298 298 298 298 298 297 297 297 296 296 295 294 294 294 294 295 296 296 297 297 297 298 298 298 299 299 300 302 303 303 303 302 302 302 303 304 305 305 304 302 300
297 297 297 297 297 297 297 296 296 296 295 295 295 295 295 296 296 297 297 297 297 297 298 298 299 300 300 302 303 304 305 306 307 307 307 308 309 309 309 308 307 305 303
296 296 296 296 297 297 296 296 296 296 296 296 296 296 297 297 297 297 297 297 297 298 298 299 301 302 303 304 304 305 307 309 311 312 313 314 314 314 313 313 311 310 308
296 296 296 297 297 297 297 296 296 296 296 297 297 297 297 297 297 297 297 297 298 299 300 302 304 305 305 306 306 307 310 313 316 317 319 319 320 320 320 319 319 318 317
296 296 296 296 297 297 297 297 297 297 297 298 298 298 297 297 297 298 298 299 300 302 304 306 307 308 308 309 311 314 316 319 322 324 325 325 326 327 327 327 326 326 324
296 297 297 297 297 297 297 298 298 298 298 298 298 298 298 298 299 299 301 302 303 305 307 309 311 314 316 318 321 325 328 330 332 333 334 335 337 339 339 339 338 337 337
297 297 297 297 298 298 299 299 299 300 300 300 300 300 300 301 302 304 305 306 307 308 310 313 316 323 328 332 337 341 344 345 345 347 350 351 352 354 355 355 355 355 354
298 299 300 300 301 301 301 302 302 302 302 302 302 302 303 304 306 308 309 309 310 311 314 320 331 341 345 349 355 357 357 357 358 1 2 3 4 5 6 7 8 9 9
302 303 303 303 304 304 304 304 304 304 304 304 305 305 306 307 309 311 313 313 313 316 328 345 0 4 5 9 11 9 9 11 13 13 13 13 13 14 14 15 16 16 15
306 306 306 306 307 306 306 306 306 306 306 307 308 308 309 310 312 316 320 324 336 5 32 35 31 29 27 25 22 22 22 23 23 23 22 23 23 22 22 23 23 23 23
310 310 310 310 309 309 309 309 309 310 311 312 314 314 314 316 319 327 340 20 64 70 62 56 51 47 41 38 35 34 32 30 28 28 27 28 28 27 27 28 28 29 29
315 314 314 314 314 313 314 314 316 317 317 320 323 326 329 335 346 13 60 80 81 75 70 65 62 57 53 51 47 42 38 35 32 31 32 32 32 32 33 34 35 36 38
320 320 320 320 320 319 320 322 325 327 331 336 342 351 3 24 52 77 87 86 81 77 75 72 67 63 61 59 53 47 42 40 38 38 37 36 36 37 38 39 40 42 44
330 329 329 329 329 330 332 337 342 347 352 360 11 27 46 66 80 85 86 84 81 80 79 75 72 70 67 62 58 53 49 46 44 43 41 39 39 41 42 43 44 46 48
343 343 343 345 348 351 355 0 6 14 24 34 46 60 71 80 85 87 84 83 82 81 81 81 77 75 71 65 62 58 53 49 48 46 46 45 44 45 46 46 48 49 51
356 358 3 9 13 17 21 28 37 47 55 63 70 75 79 84 86 86 84 84 84 85 86 85 82 79 75 69 65 60 56 53 52 51 50 50 50 50 50 50 51 52 54
13 20 26 32 39 46 51 56 61 65 71 75 77 79 80 83 84 84 85 87 87 88 88 87 85 82 78 72 66 63 60 57 56 55 55 55 55 54 53 54 54 55 56
31 37 44 51 59 63 66 69 71 74 75 75 77 78 79 80 82 85 87 89 90 90 90 88 86 85 81 74 69 65 63 61 59 57 57 57 57 56 56 56 57 57 57
44 49 55 60 66 68 70 73 75 75 75 75 75 75 76 79 82 85 89 91 91 91 91 90 89 85 81 75 71 68 66 63 61 59 58 58 58 58 58 57 57 57 58
53 57 61 64 67 69 71 73 73 73 73 73 73 73 75 78 81 86 90 91 92 92 92 92 89 85 80 77 74 71 68 65 62 60 58 57 57 57 57 57 57 57 58
57 59 61 64 66 68 69 71 71 72 72 72 72 72 74 76 80 84 88 90 91 92 93 92 89 85 81 78 74 72 69 66 62 59 57 55 54 53 53 53 53 53 53
Height
5777 5774 5771 5768 5765 5762 5759 5755 5751 5747 5742 5738 5733 5728 5723 5718 5713 5708 5703 5698 5692 5687 5681 5676 5670 5664 5657 5650 5644 5638 5631 5626 5623 5619 5610 5602 5595 5588 5582 5576 5571 5566 5561
5768 5765 5762 5758 5755 5751 5747 5743 5738 5733 5728 5723 5718 5714 5708 5704 5698 5693 5688 5683 5677 5672 5666 5660 5654 5648 5641 5635 5628 5622 5615 5608 5604 5601 5594 5586 5578 5571 5566 5560 5555 5550 5546
5758 5754 5751 5747 5743 5738 5734 5729 5724 5719 5714 5709 5704 5699 5694 5688 5683 5678 5673 5667 5662 5657 5651 5645 5639 5633 5626 5619 5613 5606 5600 5593 5587 5583 5577 5570 5563 5556 5552 5547 5542 5538 5534
5747 5743 5739 5734 5730 5725 5720 5715 5710 5704 5699 5694 5689 5684 5679 5674 5668 5663 5658 5653 5648 5642 5636 5630 5624 5618 5612 5606 5599 5592 5586 5579 5573 5567 5561 5556 5550 5545 5540 5537 5533 5528 5524
5734 5730 5726 5721 5716 5711 5705 5700 5695 5690 5684 5679 5674 5669 5664 5659 5654 5649 5644 5639 5634 5628 5622 5616 5610 5604 5598 5592 5586 5579 5572 5566 5560 5555 5550 5545 5541 5536 5532 5528 5524 5520 5516
5721 5716 5712 5707 5702 5696 5691 5686 5681 5675 5670 5665 5660 5655 5650 5646 5641 5636 5631 5626 5620 5615 5609 5602 5596 5591 5585 5579 5572 5566 5560 5555 5550 5546 5542 5538 5534 5529 5525 5521 5517 5513 5509
5707 5702 5698 5693 5688 5682 5677 5672 5667 5661 5657 5652 5647 5642 5637 5633 5628 5623 5617 5612 5607 5602 5597 5591 5584 5578 5573 5567 5561 5555 5550 5546 5542 5539 5536 5532 5528 5524 5519 5515 5510 5505 5501
5693 5688 5683 5678 5673 5668 5663 5658 5653 5648 5644 5639 5635 5630 5625 5620 5615 5610 5605 5600 5595 5590 5585 5579 5574 5568 5563 5558 5553 5549 5544 5541 5537 5534 5530 5526 5522 5517 5513 5508 5504 5499 5495
5679 5674 5669 5664 5659 5655 5650 5645 5641 5636 5632 5627 5623 5618 5613 5608 5603 5598 5593 5588 5583 5578 5574 5569 5564 5559 5555 5551 5547 5544 5541 5537 5534 5530 5526 5521 5517 5512 5508 5503 5499 5494 5490
5665 5661 5656 5652 5647 5642 5638 5634 5629 5625 5620 5616 5611 5606 5602 5597 5592 5587 5582 5577 5573 5568 5564 5560 5556 5553 5549 5546 5543 5541 5538 5535 5531 5526 5522 5518 5513 5508 5504 5499 5495 5490 5486
5653 5649 5644 5640 5636 5631 5627 5622 5618 5614 5609 5605 5600 5595 5590 5586 5581 5577 5572 5568 5564 5561 5557 5554 5551 5548 5545 5543 5541 5538 5535 5532 5528 5524 5519 5515 5510 5506 5501 5496 5491 5487 5482
5643 5638 5634 5629 5625 5620 5616 5611 5607 5602 5598 5593 5588 5584 5580 5576 5572 5568 5565 5561 5558 5555 5552 5550 5548 5546 5544 5542 5539 5537 5534 5530 5527 5522 5518 5513 5509 5504 5500 5495 5490 5485 5480
5633 5628 5624 5619 5614 5610 5605 5600 5596 5591 5587 5583 5578 5575 5571 5568 5565 5562 5559 5556 5554 5551 5549 5547 5546 5544 5543 5541 5539 5536 5533 5530 5526 5522 5517 5513 5509 5504 5499 5494 5489 5485 5480
5624 5619 5614 5609 5604 5599 5594 5590 5586 5582 5578 5574 5571 5568 5565 5563 5560 5557 5555 5553 5551 5549 5548 5547 5545 5544 5543 5541 5539 5536 5533 5530 5526 5522 5518 5513 5509 5504 5500 5495 5490 5485 5481
5615 5610 5604 5599 5594 5590 5585 5581 5578 5574 5571 5568 5565 5563 5560 5558 5556 5553 5551 5550 5549 5548 5547 5547 5546 5545 5543 5542 5540 5537 5534 5531 5527 5523 5519 5515 5510 5506 5501 5497 5492 5487 5482
5606 5601 5595 5590 5586 5582 5578 5574 5571 5569 5566 5563 5561 5558 5556 5554 5552 5551 5549 5548 5548 5548 5548 5547 5547 5545 5544 5543 5541 5538 5536 5533 5529 5525 5521 5517 5513 5508 5504 5499 5495 5490 5485
5598 5592 5587 5583 5579 5575 5572 5569 5567 5564 5562 5559 5557 5555 5553 5551 5550 5549 5549 5549 5549 5549 5549 5549 5548 5547 5546 5544 5542 5540 5538 5535 5532 5528 5524 5520 5516 5512 5507 5503 5499 5494 5489
5591 5585 5581 5577 5574 5571 5568 5566 5564 5561 5559 5557 5555 5553 5552 5551 5550 5550 5550 5551 5551 5551 5551 5550 5549 5548 5547 5546 5545 5543 5540 5537 5534 5531 5528 5524 5520 5516 5512 5508 5503 5499 5495
5585 5580 5576 5573 5570 5568 5565 5563 5562 5560 5558 5556 5555 5553 5552 5552 5552 5552 5552 5553 5553 5553 5553 5552 5552 5551 5550 5549 5547 5546 5543 5541 5538 5535 5532 5528 5524 5521 5517 5513 5509 5505 5501
5581 5577 5573 5570 5568 5566 5564 5563 5561 5560 5558 5557 5556 5555 5554 5554 5554 5555 5555 5556 5556 5556 5555 5555 5554 5554 5553 5552 5551 5549 5547 5545 5542 5539 5536 5533 5529 5526 5522 5519 5515 5512 5508
5580 5576 5572 5570 5568 5566 5565 5564 5562 5561 5560 5559 5558 5558 5557 5557 5558 5558 5558 5559 5558 5558 5558 5558 5557 5557 5556 5555 5554 5553 5551 5549 5546 5544 5541 5538 5535 5532 5528 5525 5522 5519 5516
5580 5577 5574 5571 5569 5568 5567 5566 5565 5564 5563 5562 5562 5561 5561 5561 5561 5562 5562 5562 5562 5561 5561 5561 5561 5561 5560 5559 5558 5557 5555 5553 5551 5549 5546 5544 5541 5538 5535 5532 5529 5526 5523
5583 5580 5577 5575 5573 5572 5571 5570 5569 5568 5567 5566 5566 5566 5565 5565 5565 5565 5565 5565 5565 5565 5565 5565 5565 5565 5564 5563 5562 5561 5559 5558 5556 5554 5552 5549 5547 5544 5542 5539 5536 5534 5531
5587 5584 5582 5579 5578 5577 5575 5574 5573 5572 5572 5571 5570 5570 5569 5569 5569 5569 5569 5569 5569 5569 5569 5569 5569 5569 5568 5568 5567 5565 5564 5563 5561 5560 5558 5556 5553 5551 5548 5546 5544 5541 5539
5592 5589 5587 5585 5583 5582 5581 5579 5578 5577 5576 5576 5575 5574 5573 5573 5573 5573 5573 5573 5573 5573 5573 5573 5573 5573 5572 5572 5571 5570 5569 5568 5567 5565 5563 5561 5559 5557 5555 5553 5551 5548 5546
5598 5595 5593 5591 5589 5587 5586 5584 5583 5582 5581 5580 5580 5579 5578 5577 5577 5577 5577 5577 5577 5577 5577 5577 5577 5577 5577 5576 5576 5575 5574 5573 5572 5570 5569 5567 5565 5563 5561 5559 5557 5555 5553